When you browse on this site, cookies collect data to enhance your experience and personalize the content and advertising you see.
Visit our Privacy Policy to learn more. By continuing to use the site, you agree to this use of cookies and data.
  • In France
  • List of Countries
  • For 7 days
  • Water Temperature
  • Satellite Maps
  • Weather Map
  • Weather Widgets
  • user-avatar
    Login

    Hourly Weather Prutz

    Today, 21 April, Sunday

    Time Temperature Precipitation Wind Pressure Humidity
    00:00 +1°C° 0 mm 3 mps 636 mmHg 58%
    01:00 +1°C° 0 mm 3 mps 636 mmHg 57%
    02:00 +1°C° 0 mm 3 mps 636 mmHg 59%
    03:00 0°C° 0 mm 3 mps 635 mmHg 60%
    04:00 0°C° 0 mm 3 mps 635 mmHg 62%
    05:00 +1°C° 0 mm 3 mps 635 mmHg 61%
    06:00 +2°C° 0 mm 3 mps 635 mmHg 60%
    07:00 +3°C° 0 mm 3 mps 635 mmHg 60%
    08:00 +7°C° 0 mm 2 mps 636 mmHg 53%
    09:00 +9°C° 0 mm 2 mps 636 mmHg 46%
    10:00 +13°C° 0 mm 1 mps 637 mmHg 39%
    11:00 +14°C° 0 mm 1 mps 637 mmHg 36%
    12:00 +15°C° 0 mm 1 mps 637 mmHg 34%
    13:00 +15°C° 0 mm 2 mps 636 mmHg 32%
    14:00 +15°C° 0 mm 2 mps 636 mmHg 33%
    15:00 +15°C° 0 mm 2 mps 636 mmHg 34%
    16:00 +15°C° 0 mm 2 mps 635 mmHg 35%
    17:00 +12°C° 0 mm 2 mps 634 mmHg 43%
    18:00 +9°C° 0 mm 2 mps 633 mmHg 52%
    19:00 +6°C° 0 mm 2 mps 632 mmHg 60%
    20:00 +4°C° 0 mm 3 mps 632 mmHg 62%
    21:00 +3°C° 0 mm 3 mps 632 mmHg 64%
    22:00 +2°C° 0 mm 3 mps 632 mmHg 66%
    23:00 +2°C° 0 mm 3 mps 632 mmHg 70%

    Tomorrow, 22 April, Monday

    Time Temperature Precipitation Wind Pressure Humidity
    00:00 +2°C° 0 mm 3 mps 632 mmHg 73%
    01:00 +2°C° 0 mm 3 mps 631 mmHg 77%
    02:00 +2°C° 0 mm 3 mps 631 mmHg 78%
    03:00 +2°C° 0 mm 3 mps 631 mmHg 79%
    04:00 +2°C° 0 mm 3 mps 630 mmHg 80%
    05:00 +3°C° 0 mm 3 mps 630 mmHg 75%
    06:00 +4°C° 0 mm 3 mps 630 mmHg 71%
    07:00 +5°C° 0 mm 3 mps 630 mmHg 66%
    08:00 +8°C° 0 mm 3 mps 630 mmHg 57%
    09:00 +10°C° 0 mm 2 mps 631 mmHg 49%
    10:00 +14°C° 0 mm 2 mps 631 mmHg 40%
    11:00 +14°C° 0 mm 2 mps 631 mmHg 38%
    12:00 +15°C° 0 mm 2 mps 630 mmHg 36%
    13:00 +16°C° 0 mm 2 mps 630 mmHg 35%
    14:00 +16°C° 0 mm 2 mps 629 mmHg 36%
    15:00 +16°C° 0 mm 3 mps 629 mmHg 38%
    16:00 +16°C° 0 mm 3 mps 628 mmHg 40%
    17:00 +12°C° 0 mm 3 mps 627 mmHg 48%
    18:00 +10°C° 0 mm 3 mps 626 mmHg 57%
    19:00 +8°C° 0 mm 3 mps 625 mmHg 65%
    20:00 +7°C° 0 mm 3 mps 625 mmHg 70%
    21:00 +5°C° 0 mm 3 mps 625 mmHg 74%
    22:00 +4°C° 0 mm 4 mps 625 mmHg 78%
    23:00 +4°C° 0 mm 4 mps 624 mmHg 80%

    Day after tomorrow, 23 April, Tuesday

    Time Temperature Precipitation Wind Pressure Humidity
    00:00 +4°C° 0 mm 4 mps 624 mmHg 81%
    01:00 +4°C° 0 mm 4 mps 624 mmHg 83%
    02:00 +4°C° 0 mm 3 mps 623 mmHg 81%
    03:00 +4°C° 0 mm 3 mps 623 mmHg 80%
    04:00 +4°C° 0 mm 3 mps 623 mmHg 79%
    05:00 +4°C° 0.1 mm 3 mps 622 mmHg 77%
    06:00 +5°C° 0.1 mm 3 mps 622 mmHg 76%
    07:00 +5°C° 0.1 mm 3 mps 622 mmHg 75%
    08:00 +8°C° 0.1 mm 3 mps 623 mmHg 69%
    09:00 +9°C° 0.1 mm 3 mps 623 mmHg 64%
    10:00 +11°C° 0.1 mm 3 mps 624 mmHg 59%
    11:00 +12°C° 0 mm 3 mps 624 mmHg 57%
    12:00 +12°C° 0 mm 3 mps 624 mmHg 55%
    13:00 +13°C° 0 mm 3 mps 624 mmHg 53%
    14:00 +13°C° 0.2 mm 3 mps 624 mmHg 54%
    15:00 +13°C° 0.2 mm 3 mps 624 mmHg 55%
    16:00 +13°C° 0.2 mm 3 mps 624 mmHg 56%
    17:00 +12°C° 0.1 mm 2 mps 623 mmHg 63%
    18:00 +10°C° 0.1 mm 2 mps 623 mmHg 70%
    19:00 +8°C° 0.1 mm 2 mps 623 mmHg 76%
    20:00 +7°C° 0 mm 3 mps 623 mmHg 79%
    21:00 +7°C° 0 mm 3 mps 623 mmHg 81%
    22:00 +5°C° 0 mm 3 mps 623 mmHg 84%
    23:00 +5°C° 0.1 mm 3 mps 624 mmHg 84%

    24 April, Wednesday

    Time Temperature Precipitation Wind Pressure Humidity
    00:00 +5°C° 0.1 mm 3 mps 624 mmHg 84%
    01:00 +5°C° 0.1 mm 3 mps 624 mmHg 83%
    02:00 +5°C° 0.1 mm 3 mps 624 mmHg 83%
    03:00 +5°C° 0.1 mm 3 mps 625 mmHg 83%
    04:00 +5°C° 0.1 mm 3 mps 625 mmHg 83%
    05:00 +5°C° 0.1 mm 3 mps 625 mmHg 80%
    06:00 +7°C° 0.1 mm 3 mps 626 mmHg 78%
    07:00 +8°C° 0.1 mm 3 mps 627 mmHg 75%
    08:00 +8°C° 0 mm 4 mps 627 mmHg 69%
    09:00 +10°C° 0 mm 4 mps 628 mmHg 63%
    10:00 +12°C° 0 mm 4 mps 629 mmHg 56%
    11:00 +12°C° 0.1 mm 4 mps 629 mmHg 54%
    12:00 +13°C° 0.1 mm 5 mps 629 mmHg 52%
    13:00 +14°C° 0.1 mm 5 mps 629 mmHg 49%
    14:00 +13°C° 0.1 mm 5 mps 629 mmHg 52%
    15:00 +12°C° 0.1 mm 4 mps 629 mmHg 55%
    16:00 +12°C° 0.1 mm 4 mps 629 mmHg 57%
    17:00 +10°C° 0.4 mm 4 mps 630 mmHg 64%
    18:00 +9°C° 0.4 mm 3 mps 630 mmHg 71%
    19:00 +8°C° 0.4 mm 3 mps 630 mmHg 79%
    20:00 +7°C° 0.1 mm 3 mps 631 mmHg 81%
    21:00 +5°C° 0.1 mm 3 mps 631 mmHg 83%
    22:00 +4°C° 0.1 mm 4 mps 631 mmHg 86%
    23:00 +4°C° 0 mm 4 mps 631 mmHg 86%

    25 April, Thursday

    Time Temperature Precipitation Wind Pressure Humidity
    00:00 +4°C° 0 mm 4 mps 631 mmHg 86%
    01:00 +3°C° 0 mm 4 mps 631 mmHg 86%
    02:00 +3°C° 0 mm 4 mps 630 mmHg 86%
    03:00 +3°C° 0 mm 4 mps 630 mmHg 85%
    04:00 +3°C° 0 mm 4 mps 630 mmHg 85%
    05:00 +2°C° 0 mm 5 mps 630 mmHg 81%
    06:00 +3°C° 0 mm 5 mps 631 mmHg 77%
    07:00 +5°C° 0 mm 5 mps 631 mmHg 73%
    08:00 +6°C° 0 mm 5 mps 631 mmHg 67%
    09:00 +8°C° 0 mm 5 mps 632 mmHg 61%
    10:00 +9°C° 0 mm 5 mps 632 mmHg 55%
    11:00 +10°C° 0 mm 5 mps 632 mmHg 53%
    12:00 +12°C° 0 mm 5 mps 632 mmHg 51%
    13:00 +12°C° 0 mm 5 mps 632 mmHg 48%
    14:00 +13°C° 0 mm 5 mps 632 mmHg 48%
    15:00 +13°C° 0 mm 5 mps 632 mmHg 47%
    16:00 +13°C° 0 mm 5 mps 632 mmHg 47%
    17:00 +12°C° 0 mm 4 mps 632 mmHg 54%
    18:00 +10°C° 0 mm 4 mps 631 mmHg 61%
    19:00 +9°C° 0 mm 3 mps 631 mmHg 68%
    20:00 +8°C° 0.1 mm 3 mps 631 mmHg 73%
    21:00 +7°C° 0.1 mm 3 mps 631 mmHg 78%
    22:00 +5°C° 0.1 mm 3 mps 632 mmHg 83%
    23:00 +5°C° 0 mm 3 mps 632 mmHg 85%

    26 April, Friday

    Time Temperature Precipitation Wind Pressure Humidity
    00:00 +4°C° 0 mm 3 mps 632 mmHg 87%
    01:00 +4°C° 0 mm 3 mps 632 mmHg 89%
    02:00 +4°C° 0 mm 2 mps 631 mmHg 91%
    03:00 +4°C° 0 mm 2 mps 631 mmHg 92%
    04:00 +4°C° 0 mm 2 mps 631 mmHg 94%
    05:00 +4°C° 0.2 mm 2 mps 631 mmHg 91%
    06:00 +5°C° 0.2 mm 2 mps 631 mmHg 88%
    07:00 +6°C° 0.2 mm 1 mps 631 mmHg 85%
    08:00 +5°C° 1.3 mm 2 mps 631 mmHg 87%
    09:00 +4°C° 1.3 mm 2 mps 631 mmHg 89%
    10:00 +4°C° 1.3 mm 2 mps 631 mmHg 91%
    11:00 +2°C° 1.6 mm 3 mps 631 mmHg 91%
    12:00 +2°C° 1.6 mm 3 mps 631 mmHg 90%
    13:00 +1°C° 1.6 mm 3 mps 630 mmHg 90%
    14:00 +1°C° 1.1 mm 3 mps 631 mmHg 90%
    15:00 0°C° 1.1 mm 3 mps 631 mmHg 90%
    16:00 +1°C° 1.1 mm 2 mps 631 mmHg 91%
    17:00 +1°C° 0.8 mm 2 mps 631 mmHg 92%
    18:00 -1°C° 0.8 mm 2 mps 632 mmHg 93%
    19:00 -1°C° 0.8 mm 2 mps 632 mmHg 95%
    20:00 -1°C° 0.3 mm 2 mps 633 mmHg 95%
    21:00 -2°C° 0.3 mm 2 mps 633 mmHg 96%
    22:00 -2°C° 0.3 mm 2 mps 634 mmHg 96%
    23:00 -3°C° 0.2 mm 2 mps 634 mmHg 96%
    Show more